Powrót do katalogu

SL-16 DEB

AktywnyLEO
NORAD 22451·DEBRIS·🇷🇺 Russia

Wystrzelony Dec 25, 1992 z Baikonur Cosmodrome

Loading…

Następne Przeloty (najbliższe 24 godziny)

TLE

ŚwieżeSource: Space-Track

Epoka: Sep 13, 2026, 22:13 UTC

1 22451U 92093EQ  26256.92604064  .00000059  00000-0  72281-4 0  9997
2 22451  71.1383 312.0489 0128951  43.7554 131.1715 13.94366503712054

Śledź SL-16 DEB w czasie rzeczywistym z AllMySat

Download on the App Store